Regional Weather Roundup
Issued by NWS Nashville, TN

Home | Current Version | Previous Version | Text Only | Print | Product List | Glossary On
Versions: 1 2 3 4 5 6 7 8 9 10 11 12 13 14 15 16 17 18 19 20 21 22 23 24 25 26 27 28 29 30 31 32 33 34 35 36 37 38 39 40 41 42 43 44 45 46 47 48 49 50
000
ASUS44 KOHX 190215
RWROHX
MIDDLE TENNESSEE HOURLY WEATHER ROUNDUP
NATIONAL WEATHER SERVICE NASHVILLE TN
900 PM CDT THU SEP 18 2014

NOTE: "FAIR" INDICATES FEW OR NO CLOUDS BELOW 12,000 FEET WITH
NO SIGNIFICANT WEATHER AND/OR OBSTRUCTIONS TO VISIBILITY.

* THESE REPORTS ARE NOT UNDER NWS QUALITY CONTROL AND MAY NOT
  REPORT WEATHER SUCH AS PRECIPITATION AND FOG.


TNZ005>011-023>034-057-059-062>066-078-080-190300
...NORTHERN MIDDLE TENNESSEE...

CITY           SKY/WX    TMP DP  RH WIND       PRES   REMARKS
CLARKSVILLE    CLEAR     65  57  75 NE6       30.03R
CROSSVILLE     MOCLDY    64  57  78 NE5       30.08R
GALLATIN       MOCLDY    67  62  84 NE5       30.04R
DICKSON        CLEAR     61  57  88 CALM      30.02R
LEBANON        PTCLDY    64  60  87 CALM      30.02R
LIVINGSTON     MOCLDY    63  57  80 NE3       30.06R
NASHVILLE      PTCLDY    68  60  75 N6        30.03R
WEST NASHVILLE   N/A     64  64 100 CALM      30.02R
PORTLAND       PTCLDY    63  57  82 CALM      30.03R
SMYRNA         MOCLDY    65  62  90 CALM      30.03R
SPARTA         CLEAR     63  61  94 CALM      30.04R
$$
TNZ056-058-060-061-075>077-079-093>097-190300
...SOUTHERN MIDDLE TENNESSEE...

CITY           SKY/WX    TMP DP  RH WIND       PRES   REMARKS
COLUMBIA       CLEAR     66  64  94 CALM      30.00R
FAYETTEVILLE   CLEAR     66  57  72 NE6       30.02R
LEWISBURG      PTCLDY    64  60  87 CALM      30.01R
MCMINNVILLE    CLEAR     64  64 100 CALM      30.04R
MURFREESBORO   MOCLDY    68  61  78 CALM      30.02
SHELBYVILLE    PTCLDY    63  61  94 CALM      30.03R
TULLAHOMA      MOCLDY    66  57  72 NE3       30.04R
WINCHESTER     CLOUDY    66  61  82 CALM      30.02R
$$


...KEY TO REMARKS...
VSB - VISIBILITY IN MILES
WCI - WIND CHILL INDEX
HX  - HEAT INDEX




USA.gov is the U.S. government's official web portal to all federal, state and local government web resources and services.